Wind_Speed
13 13 14 15 15 16 16 13 13 12 15 15 10 8 9 11 12 8 10 11 10 8 8 5 2 2 4 9 8 10 10 11 11 13 13 6 9 7 8 7 7 7 6
11 13 12 12 12 11 11 13 13 13 14 13 12 11 11 12 11 11 11 15 12 10 10 9 7 7 7 10 6 7 10 13 13 14 12 10 9 9 10 8 7 6 9
13 14 13 11 10 9 10 10 12 13 12 12 13 12 11 12 13 13 13 15 14 13 12 12 11 10 9 9 11 10 10 12 14 13 13 15 14 12 12 12 11 9 10
14 13 11 12 8 12 11 11 10 13 13 13 13 12 12 13 13 13 13 14 14 16 14 13 12 13 12 11 10 10 12 13 14 14 13 15 15 14 14 15 15 15 14
15 13 11 13 11 11 14 12 12 11 13 12 14 13 12 12 12 13 14 14 14 15 17 17 15 15 16 16 14 15 14 15 16 17 16 16 17 15 14 19 17 20 17
15 13 11 12 11 11 14 13 13 13 13 15 16 17 17 17 15 16 18 17 16 16 16 18 18 18 16 16 16 17 18 16 18 19 19 19 19 19 18 21 21 22 22
18 17 14 14 12 12 14 14 14 15 16 20 19 19 20 21 21 22 24 24 24 22 21 19 18 18 19 20 19 19 18 19 18 19 20 19 20 21 24 24 25 26 25
19 18 16 15 13 14 14 15 16 18 18 19 21 21 22 21 23 23 25 27 28 27 25 25 23 20 20 21 21 19 18 20 21 22 22 20 22 23 27 29 28 30 30
21 19 17 15 14 14 13 15 17 18 18 18 18 19 19 18 20 20 23 26 28 27 29 30 31 27 22 23 24 23 21 21 21 24 25 25 24 25 27 30 31 32 34
22 18 17 15 12 10 10 12 14 17 19 20 19 19 20 20 20 21 22 23 25 26 27 28 30 28 23 23 23 24 23 22 24 25 25 26 27 28 29 31 33 35 38
22 20 16 13 11 9 8 10 12 13 14 17 20 22 21 20 20 19 20 22 18 17 19 23 24 23 20 22 21 22 24 25 26 28 29 31 31 34 37 38 38 40 42
24 21 17 13 9 6 6 8 9 12 14 15 17 18 18 18 17 17 17 16 14 15 16 15 16 18 21 23 23 22 25 28 31 33 34 35 38 39 38 39 40 41 45
26 23 19 14 10 7 7 6 8 11 13 16 17 16 17 17 16 14 12 11 10 13 14 16 20 22 23 24 25 27 27 26 27 28 30 32 35 38 40 41 43 43 41
26 23 20 16 11 8 7 6 8 9 12 14 16 17 15 18 19 18 17 15 13 12 10 11 12 13 15 18 20 21 24 27 30 32 33 33 33 34 36 37 38 40 41
27 24 21 19 15 10 7 5 8 10 11 13 15 16 17 16 17 19 20 19 18 16 14 14 14 14 14 16 20 24 25 24 24 25 26 28 29 30 31 32 33 34 36
30 27 26 23 19 14 10 7 8 10 11 13 15 15 16 17 16 15 14 14 13 12 11 12 13 15 18 19 18 18 17 17 18 19 19 19 20 22 24 25 27 28 29
32 31 30 27 23 18 15 13 11 11 11 13 15 17 16 16 14 13 13 12 12 12 13 13 14 14 14 15 14 14 14 14 16 19 20 19 18 19 21 23 23 23 22
27 27 27 25 23 22 21 12 12 14 12 13 15 17 16 14 13 13 13 13 13 14 14 13 12 11 11 11 11 11 13 13 15 16 15 15 16 19 18 19 20 20 18
23 26 20 20 18 14 15 15 12 14 16 13 14 16 17 15 14 14 13 14 14 15 14 13 12 11 10 10 11 11 12 13 14 13 12 13 14 16 17 18 18 17 17
13 8 21 26 24 19 23 24 20 18 20 14 15 18 17 16 15 14 14 14 14 14 12 12 13 13 13 12 10 12 13 14 14 13 13 13 13 13 14 15 15 11 11
13 18 31 31 30 28 20 21 21 18 19 15 13 17 16 17 16 13 11 11 11 12 13 13 14 14 14 15 13 13 14 13 14 13 12 15 12 11 11 10 14 10 8
15 20 31 33 29 28 22 20 16 17 16 14 14 14 16 15 14 12 11 12 13 13 13 15 15 15 17 18 16 15 16 16 15 14 13 13 12 12 11 10 12 13 12
20 20 22 25 24 23 18 12 14 16 15 13 14 15 15 16 16 15 13 15 15 14 15 17 17 16 16 16 13 13 14 14 15 15 14 12 11 11 9 8 8 8 10
23 24 24 23 24 21 16 10 9 14 15 17 15 17 17 17 16 16 17 17 14 13 15 15 14 13 12 12 13 12 12 11 11 11 11 9 8 11 12 11 11 12 14
23 23 25 20 18 25 22 17 4 12 13 12 14 17 14 11 14 19 19 16 12 11 14 14 13 13 12 12 12 12 12 11 10 11 11 10 11 10 12 12 12 12 12
19 22 22 20 18 20 17 15 8 13 12 8 4 5 4 7 11 14 11 13 13 12 13 14 14 13 13 13 13 13 13 12 12 11 12 13 13 14 14 14 15 14 13
Wind_Direction
198 195 203 210 217 225 227 223 226 223 226 244 246 222 231 247 244 242 255 261 262 272 269 276 248 253 277 272 257 258 256 254 247 240 277 281 278 281 270 260 275 272 275
210 206 203 205 204 218 218 223 225 226 228 239 253 249 235 245 250 257 259 266 265 263 268 270 265 267 277 289 289 285 267 272 258 261 274 271 262 271 281 270 259 272 275
208 207 210 221 220 215 229 231 226 224 226 237 240 248 254 255 254 252 247 250 257 260 260 265 271 267 262 259 274 278 265 262 262 264 271 282 279 275 268 276 275 261 264
205 210 216 213 234 233 229 237 250 225 223 230 240 243 244 250 258 261 259 252 257 263 264 259 260 268 269 263 270 274 272 260 259 260 260 267 274 274 278 262 273 274 271
211 219 222 221 230 217 221 239 243 239 223 225 237 240 246 250 259 263 262 262 261 261 260 263 265 263 262 267 269 267 282 269 260 256 255 257 267 270 266 272 267 279 276
213 213 212 219 228 232 239 250 258 257 238 242 242 248 254 255 250 251 259 259 267 267 261 260 261 260 264 266 261 252 255 267 261 261 265 266 268 275 269 269 274 274 272
225 228 228 227 229 235 243 249 260 262 258 250 251 252 253 258 259 258 261 263 265 261 265 253 254 258 262 265 269 271 270 270 266 264 267 266 262 266 265 266 271 270 268
223 225 228 227 224 231 239 245 252 257 261 257 257 255 254 257 260 257 259 259 259 261 260 256 260 261 261 264 264 261 262 261 271 273 271 268 266 265 269 274 272 273 274
220 219 216 212 214 225 235 246 251 254 257 255 252 254 255 256 261 262 263 264 266 264 265 263 264 263 253 254 259 264 262 263 267 266 267 266 267 271 272 274 279 279 277
220 214 209 206 205 219 234 248 253 253 252 251 253 255 257 261 262 265 268 273 271 265 262 258 254 259 248 256 257 261 265 265 267 268 268 268 270 269 268 269 272 272 274
210 209 206 205 213 230 248 259 256 255 254 254 251 253 258 261 262 268 273 278 271 270 267 253 251 249 253 263 258 258 264 269 272 269 273 272 273 276 274 271 269 269 269
205 206 207 211 221 236 264 271 275 263 259 257 256 257 258 260 264 268 270 271 268 268 260 255 251 256 258 256 263 271 273 275 279 279 278 276 275 277 276 275 277 275 270
206 208 206 211 229 261 279 279 281 280 276 270 266 259 260 261 258 261 268 279 278 271 265 261 261 261 260 260 265 276 280 279 280 282 284 283 283 282 282 280 278 277 277
208 213 215 223 233 252 280 290 288 286 280 276 276 269 254 252 252 253 254 260 268 273 268 260 264 263 262 266 273 277 282 286 288 288 289 288 286 285 285 284 282 279 276
212 218 225 231 234 246 265 280 281 280 279 277 268 267 264 261 257 253 253 257 264 263 262 262 263 267 270 274 280 285 289 293 296 297 296 295 294 294 294 293 292 290 286
218 222 228 232 233 240 259 288 298 295 287 278 272 266 260 258 257 258 257 255 255 257 257 258 263 271 279 283 286 290 296 300 303 306 309 312 313 313 311 308 305 302 301
222 224 228 232 232 236 253 270 284 292 286 279 273 266 260 255 253 253 253 253 250 253 258 264 274 280 282 285 284 288 302 310 315 317 318 317 321 329 332 331 329 325 323
220 225 229 234 239 235 242 250 281 299 295 285 272 261 253 247 244 242 243 249 254 259 265 268 269 265 268 272 278 286 301 307 316 321 323 327 334 338 342 346 348 352 342
269 216 220 229 233 236 245 253 265 285 301 291 278 264 248 238 236 239 242 248 255 263 270 277 270 268 264 271 280 288 304 308 316 322 331 338 343 346 347 354 359 357 10
282 242 253 222 221 254 274 273 273 281 280 275 264 256 248 242 236 238 247 257 260 265 269 264 263 270 278 283 279 285 301 304 310 308 320 329 334 341 350 359 359 11 19
253 229 195 219 232 259 278 279 277 267 260 253 248 253 241 231 232 235 240 249 255 259 260 262 265 272 276 277 274 280 290 298 299 301 300 313 324 330 325 328 339 2 16
247 228 217 230 242 260 270 259 244 247 243 244 246 247 237 230 236 237 240 245 248 255 260 262 264 269 271 275 279 284 294 298 296 300 301 302 304 304 297 299 312 321 335
230 238 229 230 236 248 238 235 234 241 239 238 239 241 228 228 234 242 243 246 245 248 258 263 266 266 272 275 273 277 282 287 291 297 298 299 312 313 307 307 308 310 303
224 233 220 222 223 227 233 226 225 237 249 252 251 236 234 237 244 253 257 259 250 241 251 256 260 264 271 271 265 265 269 273 279 279 285 289 302 313 320 318 317 316 309
237 227 234 220 225 243 228 244 305 267 235 242 255 256 256 263 256 256 251 246 252 257 256 256 258 264 265 266 268 268 267 270 274 286 293 299 301 303 305 313 306 290 280
226 225 220 219 244 207 214 241 284 249 218 208 248 262 255 271 266 262 262 265 265 264 255 261 262 262 264 265 264 269 269 270 272 281 291 295 298 302 302 293 292 287 284
Height
3166 3169 3172 3175 3179 3182 3184 3185 3188 3191 3194 3195 3198 3201 3201 3204 3204 3204 3205 3208 3209 3211 3212 3214 3215 3214 3212 3211 3213 3212 3211 3212 3212 3213 3212 3213 3212 3214 3215 3215 3215 3215 3215
3163 3166 3169 3173 3176 3178 3181 3182 3185 3188 3190 3192 3194 3197 3199 3200 3200 3201 3203 3205 3206 3208 3210 3211 3211 3211 3210 3209 3210 3211 3210 3209 3209 3208 3209 3209 3210 3211 3211 3210 3212 3212 3212
3159 3163 3166 3170 3172 3175 3178 3180 3182 3183 3185 3187 3190 3191 3193 3195 3196 3197 3198 3200 3200 3202 3205 3206 3207 3208 3208 3207 3206 3206 3207 3207 3206 3206 3206 3206 3206 3207 3206 3207 3208 3209 3209
3156 3159 3162 3166 3169 3171 3174 3176 3178 3179 3181 3182 3185 3187 3189 3191 3192 3193 3194 3195 3196 3197 3198 3200 3201 3202 3202 3202 3203 3202 3201 3202 3202 3203 3204 3203 3202 3203 3203 3204 3203 3204 3205
3149 3152 3156 3161 3164 3166 3169 3171 3174 3175 3177 3179 3181 3183 3185 3187 3188 3189 3190 3190 3191 3193 3193 3194 3195 3196 3196 3196 3197 3197 3196 3197 3198 3198 3199 3199 3199 3199 3199 3198 3199 3197 3197
3144 3146 3149 3153 3156 3160 3163 3166 3169 3168 3170 3175 3177 3178 3179 3180 3182 3183 3184 3186 3186 3187 3188 3188 3189 3189 3190 3190 3190 3190 3191 3192 3193 3193 3193 3194 3194 3194 3194 3193 3192 3191 3191
3141 3141 3142 3145 3149 3153 3156 3159 3161 3163 3165 3167 3170 3172 3173 3174 3176 3178 3179 3179 3180 3181 3181 3182 3183 3184 3184 3184 3184 3184 3184 3185 3186 3187 3187 3188 3187 3187 3186 3186 3185 3184 3184
3141 3139 3138 3139 3142 3144 3148 3151 3155 3156 3159 3161 3162 3164 3166 3167 3168 3169 3170 3171 3172 3173 3175 3176 3177 3178 3178 3178 3178 3178 3179 3180 3180 3180 3181 3181 3180 3180 3178 3177 3177 3175 3176
3137 3136 3136 3137 3138 3139 3141 3144 3147 3149 3152 3154 3156 3157 3159 3160 3161 3162 3163 3164 3164 3166 3167 3168 3168 3170 3172 3171 3171 3172 3174 3175 3175 3175 3174 3174 3174 3174 3173 3171 3170 3168 3165
3138 3137 3135 3134 3135 3136 3136 3138 3140 3142 3144 3147 3149 3150 3152 3154 3156 3156 3156 3156 3156 3157 3158 3158 3159 3161 3164 3165 3165 3165 3166 3167 3167 3167 3167 3167 3166 3166 3165 3162 3162 3159 3156
3135 3135 3135 3134 3133 3133 3132 3132 3134 3136 3139 3141 3142 3142 3145 3147 3148 3149 3149 3149 3149 3149 3149 3150 3152 3154 3157 3158 3159 3159 3159 3159 3159 3159 3159 3159 3158 3156 3153 3152 3150 3148 3145
3128 3131 3131 3131 3132 3131 3129 3128 3129 3130 3132 3134 3135 3136 3138 3140 3141 3141 3142 3142 3144 3144 3144 3145 3146 3149 3150 3151 3151 3152 3152 3151 3151 3150 3149 3148 3146 3144 3143 3141 3138 3136 3134
3125 3127 3127 3126 3127 3129 3126 3124 3124 3125 3126 3129 3130 3131 3132 3133 3135 3137 3137 3138 3138 3138 3139 3140 3141 3142 3143 3143 3144 3145 3145 3144 3143 3141 3139 3137 3135 3132 3130 3128 3126 3124 3122
3120 3123 3125 3124 3124 3125 3123 3120 3119 3120 3121 3123 3125 3126 3127 3128 3129 3131 3132 3134 3135 3135 3135 3136 3136 3137 3138 3139 3139 3139 3138 3136 3134 3132 3130 3127 3124 3121 3118 3115 3113 3111 3109
3116 3119 3123 3122 3120 3122 3120 3118 3116 3117 3117 3118 3120 3121 3121 3122 3124 3125 3126 3128 3129 3130 3130 3131 3132 3133 3133 3133 3133 3132 3130 3128 3126 3124 3121 3118 3115 3112 3108 3105 3102 3100 3097
3111 3113 3116 3118 3118 3117 3116 3114 3113 3113 3113 3114 3115 3116 3117 3118 3118 3119 3121 3122 3123 3125 3126 3126 3127 3128 3128 3127 3126 3126 3124 3123 3120 3117 3115 3112 3108 3105 3101 3098 3095 3092 3089
3105 3108 3110 3111 3114 3114 3112 3110 3109 3110 3109 3109 3111 3111 3112 3113 3114 3115 3116 3117 3118 3120 3121 3122 3123 3123 3123 3122 3122 3121 3120 3118 3116 3113 3110 3107 3104 3101 3098 3093 3089 3085 3082
3093 3100 3105 3107 3109 3110 3108 3106 3105 3104 3104 3104 3106 3106 3107 3107 3108 3110 3111 3112 3114 3115 3116 3117 3119 3119 3119 3118 3118 3117 3116 3114 3112 3109 3106 3104 3101 3099 3095 3092 3087 3083 3079
3082 3091 3098 3101 3102 3103 3101 3101 3100 3099 3099 3100 3101 3102 3103 3103 3105 3106 3107 3108 3109 3111 3111 3113 3113 3113 3113 3113 3112 3112 3111 3110 3108 3105 3103 3101 3098 3096 3093 3090 3087 3083 3079
3073 3073 3085 3091 3092 3094 3093 3092 3093 3092 3094 3096 3097 3099 3099 3101 3101 3102 3103 3104 3105 3106 3107 3109 3108 3108 3108 3108 3108 3108 3107 3105 3104 3103 3101 3098 3097 3094 3092 3089 3087 3084 3081
3069 3066 3066 3074 3080 3083 3085 3085 3083 3086 3088 3089 3093 3095 3096 3098 3098 3099 3100 3101 3102 3103 3104 3105 3105 3104 3103 3103 3104 3103 3102 3101 3100 3100 3098 3095 3094 3092 3090 3088 3087 3085 3083
3063 3063 3064 3066 3071 3076 3080 3079 3078 3079 3084 3085 3087 3090 3093 3093 3095 3096 3097 3098 3098 3099 3100 3101 3100 3100 3099 3099 3098 3097 3096 3095 3095 3094 3093 3092 3091 3089 3088 3086 3084 3083 3081
3056 3059 3061 3064 3066 3069 3074 3074 3074 3076 3079 3081 3084 3086 3089 3089 3091 3092 3093 3094 3094 3094 3095 3096 3095 3095 3094 3094 3094 3093 3092 3091 3091 3089 3088 3087 3086 3085 3084 3083 3082 3080 3080
3050 3054 3059 3060 3062 3065 3069 3068 3070 3072 3074 3076 3079 3082 3084 3084 3085 3086 3087 3088 3090 3090 3090 3091 3090 3089 3089 3090 3089 3088 3088 3087 3087 3086 3085 3084 3083 3082 3080 3079 3079 3076 3076
3045 3050 3054 3056 3059 3060 3062 3065 3065 3069 3072 3074 3075 3077 3078 3079 3080 3081 3082 3082 3084 3085 3085 3085 3085 3085 3085 3085 3085 3084 3084 3083 3082 3081 3080 3079 3079 3078 3077 3076 3075 3075 3074
3042 3046 3050 3051 3052 3054 3059 3062 3064 3069 3069 3071 3073 3073 3075 3076 3076 3077 3077 3078 3079 3080 3080 3080 3081 3081 3081 3080 3080 3079 3079 3079 3078 3077 3076 3075 3075 3073 3072 3072 3071 3071 3070